Simultaneous Nadir Overpasses (SNOs) Predictions

Prediction of SNOs between NOAA-19 and NPP Satellite Orbit:

Table of predicted SNOs for the next 14.0 days since TLE Epoch: 2/17/2012
Index Date (NOAA-19) Time (NOAA-19) NOAA-19 Lat,Lon Date (NPP) Time (NPP) NPP Lat,Lon Distance(km) Time Diff (sec)
1 02/20/2012 14:49:14 80.40, -85.69 02/20/2012 14:50:24 80.41, -85.86 3.24 70
2 02/20/2012 15:40:20 -80.35, 82.19 02/20/2012 15:41:07 -80.36, 82.09 1.97 47
3 02/20/2012 16:31:19 80.39,-111.06 02/20/2012 16:31:53 80.38,-110.94 2.17 34
4 02/20/2012 17:22:19 -80.19, 58.72 02/20/2012 17:22:31 -80.20, 58.57 3.05 12
5 02/20/2012 18:13:18 80.23,-134.50 02/20/2012 18:13:17 80.23,-134.44 1.08 1
6 02/20/2012 19:04:23 -80.15, 33.66 02/20/2012 19:03:59 -80.15, 33.78 2.38 24
7 02/20/2012 19:55:16 80.03,-157.71 02/20/2012 19:54:40 80.04,-157.70 0.04 36
8 02/20/2012 20:46:20 -79.92, 10.71 02/20/2012 20:45:21 -79.92, 10.77 1.37 59




NCC Satellite Simultaneous Nadir Overpasses (SNOs) Prediction Service
